This is the latest recevied weather packets stored in our database for station/object HS3MXC-2. If no packets are shown the sender has not sent any weather packets the latest 10 day(s).
| Time | Temp. | Humidity | Pressure | Rain* | Wind** | Luminosity | Snow |
|---|---|---|---|---|---|---|---|
| 1788158854 | 83° F | 55% | 743.8 mmHg | - | - | - | - |
| 1788157953 | 83° F | 56% | 744.1 mmHg | - | - | - | - |
| 1788157353 | 83° F | 58% | 744.2 mmHg | - | - | - | - |
| 1788157071 | 84° F | 60% | 744.4 mmHg | - | - | - | - |
| 1788156171 | 84° F | 67% | 744.7 mmHg | - | - | - | - |
| 1788154953 | 83° F | 65% | 745 mmHg | - | - | - | - |
| 1788154053 | 83° F | 64% | 745.3 mmHg | - | - | - | - |
| 1788153754 | 82° F | 62% | 745.3 mmHg | - | - | - | - |
| 1788153453 | 82° F | 58% | 745.3 mmHg | - | - | - | - |
| 1788153157 | 82° F | 55% | 745.5 mmHg | - | - | - | - |
| 1788152253 | 81° F | 52% | 745.6 mmHg | - | - | - | - |
| 1788151354 | 81° F | 53% | 745.7 mmHg | - | - | - | - |
| 1788150153 | 81° F | 55% | 745.9 mmHg | - | - | - | - |
| 1788149854 | 81° F | 56% | 746 mmHg | - | - | - | - |
| 1788149253 | 81° F | 56% | 746 mmHg | - | - | - | - |
| 1788148956 | 81° F | 56% | 746 mmHg | - | - | - | - |
| 1788147754 | 80° F | 56% | 746.1 mmHg | - | - | - | - |
| 1788147453 | 80° F | 56% | 746.1 mmHg | - | - | - | - |
| 1788147158 | 80° F | 57% | 746.2 mmHg | - | - | - | - |
| 1788146855 | 80° F | 57% | 746.2 mmHg | - | - | - | - |
| 1788144753 | 80° F | 61% | 746.3 mmHg | - | - | - | - |
| 1788144454 | 80° F | 59% | 746.3 mmHg | - | - | - | - |
| 1788144154 | 80° F | 60% | 746.2 mmHg | - | - | - | - |
| 1788143856 | 80° F | 62% | 746.2 mmHg | - | - | - | - |
| 1788142955 | 80° F | 60% | 746.2 mmHg | - | - | - | - |
* Rain since midnight (hover to see other rain measurements)
** Current wind speed in m/s (hover to see current wind gust speed)